GW4545 Weather Reports


Display with metric or nautical units.
time (UTC)temp
F
wind
direction
speed
MPH
gust
MPH
rain 1hr
in
rain 24hr
in
rain mn
in
humidity
%
barometer
mb
20260506031547 60 229 1.0 2.0 0.00 0.00 0.00 82 1016.7
20260506030047 62 0 0.0 4.0 0.00 0.00 0.00 76 1016.7
20260506024552 63 114 0.0 2.0 0.00 0.00 0.00 75 1016.6
20260506023055 64 0 1.0 6.0 0.00 0.00 0.00 74 1016.4
20260506021557 65 98 1.0 3.0 0.00 0.00 0.00 72 1016.2
20260506020045 66 111 1.0 4.0 0.00 0.00 0.00 72 1016.2
20260506014547 66 0 0.0 4.0 0.00 0.00 0.00 71 1016.1
20260506013048 66 15 2.0 6.0 0.00 0.00 0.00 72 1016.4
20260506011548 66 44 1.0 6.0 0.00 0.00 0.00 72 1016.3
20260506010048 67 42 1.0 4.0 0.00 0.00 0.00 70 1016.4
20260506004540 66 101 1.0 4.0 0.00 0.00 0.00 71 1016.5
20260506003042 66 113 2.0 5.0 0.00 0.00 0.00 71 1016.5
20260506001555 66 77 1.0 8.0 0.00 0.00 0.00 71 1016.5
20260506000047 66 115 1.0 5.0 0.00 0.00 0.00 73 1016.6
20260505234605 66 60 2.0 7.0 0.00 0.00 0.00 71 1016.6
20260505233047 65 92 2.0 7.0 0.00 0.00 0.00 71 1016.9
20260505231542 65 80 3.0 7.0 0.00 0.00 0.00 72 1017.2
20260505230046 64 40 1.0 6.0 0.00 0.00 0.00 74 1017.2
20260505224541 63 94 3.0 6.0 0.00 0.00 0.00 72 1017.3
20260505223102 63 103 2.0 7.0 0.00 0.00 0.00 73 1017.4
20260505221543 63 78 1.0 6.0 0.00 0.00 0.00 75 1017.4
20260505220046 62 84 0.0 5.0 0.00 0.00 0.00 75 1017.5
20260505214552 61 38 2.0 6.0 0.00 0.00 0.00 79 1017.5
20260505213048 61 36 2.0 7.0 0.00 0.00 0.00 77 1017.6
20260505211552 61 28 2.0 8.0 0.00 0.00 0.00 78 1017.6
20260505210041 61 56 1.0 5.0 0.00 0.00 0.00 77 1017.7
20260505204547 60 155 1.0 8.0 0.00 0.00 0.00 79 1017.9
20260505203113 60 70 4.0 9.0 0.00 0.00 0.00 79 1018.0
20260505201545 60 0 1.0 6.0 0.00 0.00 0.00 82 1018.0
20260505200046 59 24 2.0 6.0 0.00 0.00 0.00 80 1018.1
20260505194544 58 38 2.0 5.0 0.00 0.00 0.00 82 1018.1
20260505193042 58 94 1.0 4.0 0.00 0.00 0.00 84 1018.2
20260505191546 57 90 2.0 4.0 0.00 0.00 0.00 85 1018.0
20260505190046 57 0 0.0 4.0 0.00 0.00 0.00 84 1018.1
20260505184552 56 137 1.0 4.0 0.00 0.00 0.00 85 1018.1
20260505183048 56 0 2.0 4.0 0.00 0.00 0.00 85 1018.0
20260505181553 56 41 2.0 4.0 0.00 0.00 0.00 87 1018.0
20260505180056 56 78 1.0 4.0 0.00 0.00 0.00 90 1018.0
20260505174545 55 95 2.0 4.0 0.00 0.00 0.00 89 1017.9
20260505173048 55 0 1.0 3.0 0.00 0.00 0.00 90 1017.9
20260505171548 55 101 0.0 3.0 0.00 0.00 0.00 88 1017.8
20260505170052 55 352 0.0 2.0 0.00 0.00 0.00 87 1017.6
20260505164547 54 0 1.0 3.0 0.00 0.00 0.00 88 1017.4
20260505163048 54 71 0.0 2.0 0.00 0.00 0.00 88 1017.3
20260505161548 54 38 1.0 4.0 0.00 0.00 0.00 90 1017.3
20260505153050 53 117 0.0 2.0 0.00 0.00 0.00 88 1017.1
20260505151545 53 0 0.0 1.0 0.00 0.00 0.00 88 1017.1
20260505124548 51 0 0.0 2.0 0.00 0.00 0.00 92 1016.0
20260505123101 50 105 1.0 2.0 0.00 0.00 0.00 92 1016.0
20260505121548 50 0 0.0 2.0 0.00 0.00 0.00 93 1015.9
20260505120053 50 91 1.0 3.0 0.00 0.00 0.00 94 1015.9
20260505114547 50 0 0.0 0.0 0.00 0.00 0.00 94 1016.0
20260505113049 50 0 0.0 2.0 0.00 0.00 0.00 93 1015.8
20260505111545 50 0 0.0 1.0 0.00 0.00 0.00 94 1015.8
20260505101545 48 0 0.0 0.0 0.00 0.00 0.00 94 1015.3
20260505100043 48 218 0.0 1.0 0.00 0.00 0.00 95 1015.4
20260505094545 47 0 0.0 0.0 0.00 0.00 0.00 94 1015.4
20260505093054 47 0 0.0 2.0 0.00 0.00 0.00 93 1015.2
20260505091544 47 218 0.0 2.0 0.00 0.00 0.00 93 1015.0
20260505090042 47 0 0.0 2.0 0.00 0.00 0.00 93 1014.9
20260505084543 47 0 1.0 2.0 0.00 0.00 0.00 93 1014.8
20260505083057 48 209 1.0 3.0 0.00 0.00 0.00 92 1014.8
20260505081548 48 184 2.0 3.0 0.00 0.00 0.00 93 1014.7
20260505080046 48 286 0.0 2.0 0.00 0.00 0.00 91 1014.7
20260505074543 49 286 1.0 3.0 0.00 0.00 0.00 91 1014.7
20260505073043 49 0 0.0 2.0 0.00 0.00 0.00 90 1014.5
20260505071548 50 250 1.0 2.0 0.00 0.00 0.00 90 1014.3
20260505070100 51 0 0.0 2.0 0.00 0.00 0.00 87 1014.0
20260505064550 52 0 0.0 6.0 0.00 0.00 0.00 86 1014.0
20260505063047 53 0 0.0 1.0 0.00 0.00 0.00 86 1013.7
20260505061610 53 0 0.0 2.0 0.00 0.00 0.00 86 1013.4
20260505060058 54 300 1.0 2.0 0.00 0.00 0.00 85 1013.3
20260505054547 54 300 1.0 3.0 0.00 0.00 0.00 84 1013.4
20260505053044 55 268 0.0 3.0 0.00 0.00 0.00 82 1013.5
20260505051542 55 0 0.0 2.0 0.00 0.00 0.00 82 1013.5
20260505041552 58 315 1.0 9.0 0.00 0.00 0.00 77 1012.9
20260505040058 59 268 3.0 6.0 0.00 0.00 0.00 77 1012.7
20260505034544 60 313 2.0 4.0 0.00 0.00 0.00 75 1012.5
20260505033041 61 0 0.0 5.0 0.00 0.00 0.00 74 1012.4